Location: Fernhill
(41.0167°S, 175.6333°E)
Time: 08:59:50
(UTC+00:00)

Terra - Pass Details

Date: 08 November 2025
Orbit: 688 x 693 km, 98.0° (Epoch: 11 December)

Event Time Altitude Azimuth Distance (km) Brightness Sun altitude
Rises 11:06:44 0° 185° (S) 3,104 6.3 -30.9°
Reaches altitude 10° 11:09:46 10° 205° (SSW) 2,179 5.2 -31.0°
Maximum altitude 11:12:40 16° 243° (WSW) 1,780 4.3 -31.2°
Enters shadow 11:14:08 14° 265° (W) 1,885 4.2 -31.2°
